TimeEST,TemperatureF,Dew PointF,Humidity,Sea Level PressureIn,VisibilityMPH,Wind Direction,Wind SpeedMPH,Gust SpeedMPH,PrecipitationIn,Events,Conditions,WindDirDegrees,DateUTC
12:00 AM,46.8,44.2,91,30.14,-9999.0,SSE,4.6,-,N/A,,Unknown,160,2012-11-10 05:00:00
1:00 AM,46,44,92,30.14,,SE,2.3,,,,,130,2012-11-10 06:00:00
1:00 AM,46.4,44.4,93,30.14,-9999.0,SE,2.3,-,N/A,,Unknown,130,2012-11-10 06:00:00
2:00 AM,46.6,44.2,92,30.14,-9999.0,SSE,3.5,-,N/A,,Unknown,150,2012-11-10 07:00:00
3:00 AM,47.3,44.1,88,30.14,-9999.0,SSE,4.6,-,N/A,,Unknown,150,2012-11-10 08:00:00
4:00 AM,47.7,44.4,89,30.14,-9999.0,SSE,6.9,-,N/A,,Unknown,150,2012-11-10 09:00:00
5:00 AM,47.5,45.0,91,30.14,-9999.0,SSE,6.9,-,N/A,,Unknown,160,2012-11-10 10:00:00
6:00 AM,47.5,45.0,91,30.13,-9999.0,SSE,5.8,-,N/A,,Unknown,160,2012-11-10 11:00:00
7:00 AM,47,45,90,30.13,,SSE,5.8,,,,,160,2012-11-10 12:00:00
7:00 AM,47.5,45.0,91,30.13,-9999.0,SSE,5.8,-,N/A,,Unknown,160,2012-11-10 12:00:00
8:00 AM,48.2,45.1,89,30.14,-9999.0,SSE,4.6,-,N/A,,Unknown,160,2012-11-10 13:00:00
9:00 AM,50.0,43.7,79,30.14,-9999.0,South,9.2,-,N/A,,Unknown,180,2012-11-10 14:00:00
11:00 AM,51.1,43.5,75,30.14,-9999.0,South,6.9,-,N/A,,Unknown,190,2012-11-10 16:00:00
12:00 PM,51.8,43.7,74,30.12,-9999.0,South,6.9,-,N/A,,Unknown,180,2012-11-10 17:00:00
1:00 PM,54,45,62,30.08,,South,8.1,,,,,170,2012-11-10 18:00:00
1:00 PM,54.5,44.6,69,30.08,-9999.0,South,8.1,-,N/A,,Unknown,170,2012-11-10 18:00:00
2:00 PM,55.6,44.6,67,30.08,-9999.0,South,10.4,-,N/A,,Unknown,180,2012-11-10 19:00:00
3:00 PM,56.1,44.8,66,30.07,-9999.0,South,8.1,-,N/A,,Unknown,170,2012-11-10 20:00:00
4:00 PM,57.6,45.9,65,30.07,-9999.0,SSE,8.1,-,N/A,,Unknown,160,2012-11-10 21:00:00
5:00 PM,52.2,44.8,76,30.06,-9999.0,SE,4.6,-,N/A,,Unknown,130,2012-11-10 22:00:00
6:00 PM,52.5,45.3,76,30.07,-9999.0,SE,4.6,-,N/A,,Unknown,140,2012-11-10 23:00:00
7:00 PM,54,46,67,30.07,,SSE,11.5,,,,,160,2012-11-11 00:00:00
7:00 PM,54.0,46.2,75,30.07,-9999.0,SSE,11.5,-,N/A,,Unknown,160,2012-11-11 00:00:00
8:00 PM,56.8,46.2,68,30.05,-9999.0,South,13.8,-,N/A,,Unknown,170,2012-11-11 01:00:00
9:00 PM,55.8,46.4,71,30.06,-9999.0,South,10.4,-,N/A,,Unknown,180,2012-11-11 02:00:00
10:00 PM,54.9,45.5,71,30.07,-9999.0,South,6.9,-,N/A,,Unknown,190,2012-11-11 03:00:00
11:00 PM,56.1,44.6,65,30.07,-9999.0,SSW,8.1,-,N/A,,Unknown,200,2012-11-11 04:00:00